Overview Statistics Trail Chart Weather Telemetry Raw packets
 

This is the latest recevied weather packets stored in our database for station/object IZ8QAD-4. If no packets are shown the sender has not sent any weather packets the latest 10 day(s).

<< 1 2 3 4 5 6 >>
Time Temp. Humidity Pressure Rain* Wind** Luminosity Snow
1788523775 32.22° C 25% 971.3 hPa - - - -
1788523695 32.22° C 26% 971.3 hPa - - - -
1788523688 32.22° C 25% 971.5 hPa - - - -
1788523681 32.22° C 28% 971.7 hPa - - - -
1788521970 32.22° C 26% 971.3 hPa - - - -
1788520170 32.22° C 25% 971.5 hPa - - - -
1788518370 32.22° C 28% 971.7 hPa - - - -
1788516576 32.22° C 33% 971.9 hPa - - - -
1788514776 31.11° C 31% 972 hPa - - - -
1788512975 30.56° C 27% 972.1 hPa - - - -
1788511175 30.56° C 27% 972.2 hPa - - - -
1788509375 30.56° C 28% 972.1 hPa - - - -
1788507575 29.44° C 31% 972 hPa - - - -
1788507303 31.67° C 27% 971.6 hPa - - - -
1788505998 31.67° C 28% 971.5 hPa - - - -
1788505774 30.56° C 29% 971.9 hPa - - - -
1788504891 32.22° C 29% 971.3 hPa - - - -
1788503974 31.11° C 28% 971.8 hPa - - - -
1788502173 31.67° C 27% 971.7 hPa - - - -
1788500373 31.67° C 27% 971.6 hPa - - - -
1788498572 31.67° C 28% 971.5 hPa - - - -
1788496771 32.22° C 29% 971.3 hPa - - - -
1788494971 32.78° C 32% 971.1 hPa - - - -
1788493171 32.78° C 31% 971.5 hPa - - - -
1788491370 32.78° C 31% 971.5 hPa - - - -

* Rain since midnight (hover to see other rain measurements)
** Current wind speed in m/s (hover to see current wind gust speed)